dateGMT;heureGMT;camp;filtre;longitude;latitude;SiOH4;NO3NO2;PO4;CT;SAL;SST 
25/01/2000;14:55:00;B;2;353.92;48.97;2.86;5.81;NULL;NULL;NULL;NULL
25/01/2000;17:50:00;B;3;352.43;48.32;2.02;6.59;NULL;NULL;NULL;NULL
25/01/2000;21:30:00;B;4;350.87;47.63;1.65;5.06;NULL;NULL;NULL;NULL
26/01/2000;06:25:00;B;5;347.20;45.99;2.00;5.35;NULL;NULL;NULL;NULL
26/01/2000;10:30:00;B;6;345.58;45.25;1.69;6.10;NULL;NULL;NULL;NULL
26/01/2000;14:30:00;B;7;343.82;44.90;1.34;4.10;NULL;NULL;NULL;NULL
26/01/2000;18:30:00;B;8;341.95;44.75;2.05;4.44;NULL;NULL;NULL;NULL
26/01/2000;22:00:00;B;9;340.18;44.62;1.91;4.64;NULL;2104.10;35.70;13.31
27/01/2000;07:20:00;B;10;335.93;44.28;2.05;5.07;NULL;2110.20;35.69;13.81
27/01/2000;11:20:00;B;11;334.03;44.12;1.41;2.97;NULL;2100.90;35.84;14.63
27/01/2000;15:30:00;B;12;332.22;43.99;1.27;3.51;NULL;2096.70;35.88;15.46
27/01/2000;19:30:00;B;13;330.32;43.82;1.32;2.55;NULL;2090.80;35.92;15.50
27/01/2000;23:30:00;B;14;328.52;43.67;1.06;2.21;NULL;2082.50;35.85;15.78
28/01/2000;08:25:00;B;15;324.42;43.37;0.96;2.29;NULL;2075.30;35.81;15.36
28/01/2000;12:30:00;B;16;322.58;43.20;0.87;2.18;NULL;2074.60;35.84;16.08
28/01/2000;16:20:00;B;17;320.80;43.07;0.96;2.05;NULL;2094.50;36.06;16.83
28/01/2000;20:05:00;B;18;319.17;42.94;1.47;3.10;NULL;2080.30;35.71;15.48
29/01/2000;00:10:00;B;19;317.50;42.78;1.04;1.42;NULL;NULL;NULL;NULL
29/01/2000;09:20:00;B;20;314.48;42.60;1.24;1.13;NULL;NULL;NULL;NULL
29/01/2000;13:10:00;B;21;313.18;42.40;1.91;1.24;NULL;NULL;NULL;NULL
29/01/2000;17:10:00;B;22;311.77;42.30;0.81;1.42;NULL;NULL;NULL;NULL
29/01/2000;21:10:00;B;23;310.13;42.22;0.75;1.72;NULL;NULL;NULL;NULL
30/01/2000;01:10:00;B;24;308.53;42.05;0.62;1.75;NULL;NULL;NULL;NULL
30/01/2000;10:10:00;B;25;304.83;41.72;0.75;3.80;NULL;NULL;NULL;NULL
30/01/2000;14:10:00;B;26;303.27;41.65;1.73;2.81;NULL;NULL;NULL;NULL
30/01/2000;18:15:00;B;27;301.55;41.47;0.82;2.81;NULL;2089.20;36.06;16.38
31/01/2000;02:05:00;B;28;298.06;41.18;0.67;4.41;NULL;2097.80;36.00;15.91
31/01/2000;11:10:00;B;29;294.25;40.83;0.66;4.19;NULL;NULL;NULL;NULL
31/01/2000;15:05:00;B;30;292.72;40.73;0.29;5.85;NULL;NULL;NULL;NULL
31/01/2000;19:10:00;B;31;291.17;40.60;2.49;8.58;NULL;NULL;NULL;NULL
31/01/2000;23:05:00;B;32;289.70;40.53;0.72;2.54;NULL;NULL;NULL;NULL
01/02/2000;03:05:00;B;33;288.33;40.52;0.64;3.56;NULL;NULL;NULL;NULL
02/02/2000;03:05:00;B;34;286.18;40.22;0.67;3.05;NULL;NULL;NULL;NULL
02/02/2000;11:05:00;B;35;285.06;37.75;0.29;0.17;NULL;NULL;NULL;NULL
02/02/2000;15:05:00;B;36;284.10;36.90;0.71;0.11;NULL;NULL;NULL;NULL
03/02/2000;11:10:00;B;37;284.92;35.58;0.50;0.58;NULL;NULL;NULL;NULL
03/02/2000;15:10:00;B;38;284.52;34.68;0.56;0.41;NULL;NULL;NULL;NULL
03/02/2000;19:30:00;B;39;283.23;33.83;1.07;1.49;NULL;NULL;NULL;NULL
03/02/2000;23:10:00;B;40;282.18;33.10;0.88;1.67;NULL;NULL;NULL;NULL
04/02/2000;03:20:00;B;41;280.93;32.42;0.90;1.24;NULL;NULL;NULL;NULL
05/02/2000;11:25:00;B;42;280.90;30.12;0.93;0.11;NULL;2029.80;36.38;24.29
05/02/2000;15:10:00;B;43;281.65;29.07;0.68;0.10;NULL;2043.40;36.68;22.76
05/02/2000;19:10:00;B;44;282.43;27.97;0.54;0.10;NULL;2045.70;36.72;23.40
05/02/2000;23:30:00;B;45;283.27;26.83;0.92;0.15;NULL;2040.80;36.78;24.00
06/02/2000;03:05:00;B;46;283.93;25.85;0.72;0.02;NULL;2038.20;36.77;23.91
06/02/2000;11:35:00;B;47;285.40;23.50;0.72;0.09;NULL;2037.60;36.79;24.28
06/02/2000;15:15:00;B;48;285.57;22.42;0.72;0.14;NULL;2030.10;36.69;24.94
06/02/2000;19:10:00;B;49;285.82;21.15;0.75;0.11;NULL;2033.60;36.73;24.92
06/02/2000;23:30:00;B;50;285.83;19.80;0.76;0.31;NULL;2027.90;36.57;25.35
07/02/2000;03:10:00;B;51;285.28;18.68;0.90;0.23;NULL;1997.10;35.78;26.33
07/02/2000;11:10:00;B;52;284.01;16.43;0.98;0.05;NULL;1987.70;35.69;26.80
07/02/2000;15:05:00;B;53;283.38;15.35;1.01;0.10;NULL;1984.00;35.66;26.63
07/02/2000;19:10:00;B;54;282.78;14.27;1.55;0.15;NULL;2025.20;36.14;26.29
07/02/2000;23:25:00;B;55;282.18;13.22;1.09;0.02;NULL;2003.60;35.91;26.28
08/02/2000;03:10:00;B;56;281.68;12.30;0.95;0.10;NULL;1992.50;35.70;26.68
08/02/2000;11:15:00;B;57;280.65;10.47;1.40;0.14;NULL;1985.00;35.41;26.77
09/02/2000;23:10:00;B;58;280.38;8.28;1.11;0.07;NULL;NULL;NULL;NULL
10/02/2000;03:10:00;B;59;279.93;6.97;0.77;0.55;NULL;NULL;NULL;NULL
10/02/2000;11:05:00;B;60;277.23;6.12;0.43;0.01;NULL;1783.10;30.84;27.15
10/02/2000;15:10:00;B;61;275.98;5.70;0.55;0.26;NULL;1843.80;32.18;28.27
10/02/2000;19:05:00;B;62;274.62;5.27;0.77;0.04;NULL;1796.00;31.14;28.19
10/02/2000;23:15:00;B;63;273.13;4.72;0.55;0.09;NULL;1762.10;30.61;28.83
11/02/2000;03:00:00;B;64;271.87;4.52;0.38;0.00;NULL;1775.50;30.82;28.23
11/02/2000;12:05:00;B;65;269.00;3.12;0.46;0.01;NULL;1811.50;31.63;27.50
11/02/2000;16:05:00;B;66;267.70;2.60;0.88;1.08;NULL;1815.20;31.21;NULL
11/02/2000;20:15:00;B;67;266.40;2.10;0.90;0.20;NULL;1861.80;32.11;NULL
12/02/2000;00:10:00;B;68;265.01;1.57;0.64;0.03;NULL;1874.40;33.01;27.13
12/02/2000;04:00:00;B;69;263.77;1.07;1.78;2.39;NULL;1934.50;33.66;26.34
12/02/2000;12:05:00;B;70;261.20;0.07;0.96;3.51;NULL;1985.10;34.10;25.50
12/02/2000;15:50:00;B;71;260.03;-0.37;1.53;4.23;NULL;2008.70;34.24;25.49
12/02/2000;20:00:00;B;72;258.65;-0.90;4.72;9.22;NULL;2039.90;34.59;25.50
12/02/2000;23:05:00;B;73;257.65;-1.28;3.72;6.87;NULL;2023.20;34.39;24.71
13/02/2000;04:05:00;B;74;256.03;-1.92;1.75;3.75;NULL;1999.00;34.34;25.22
13/02/2000;13:05:00;B;75;253.20;-3.02;1.71;7.25;NULL;2049.00;34.70;26.12
13/02/2000;17:00:00;B;76;251.97;-3.50;1.48;8.35;NULL;2038.50;34.64;26.36
13/02/2000;21:05:00;B;77;250.68;-4.00;1.95;8.38;NULL;2036.70;34.59;26.13
14/02/2000;01:10:00;B;78;249.40;-4.48;3.18;10.19;NULL;2035.80;34.65;26.17
14/02/2000;05:00:00;B;79;248.18;-4.97;1.85;8.32;NULL;2044.90;34.72;25.93
14/02/2000;14:05:00;B;80;245.13;-6.15;1.81;8.39;NULL;2038.10;34.82;26.13
14/02/2000;18:00:00;B;81;243.82;-6.57;1.42;8.14;NULL;2038.70;34.84;26.03
14/02/2000;22:00:00;B;82;242.53;-6.95;1.44;7.90;NULL;2036.00;35.02;26.27
15/02/2000;02:10:00;B;83;241.11;-7.40;3.24;9.56;NULL;2043.60;34.93;25.94
15/02/2000;06:00:00;B;84;239.88;-7.78;2.31;6.63;NULL;2043.40;35.11;26.26
15/02/2000;14:10:00;B;85;237.20;-8.62;1.07;5.78;NULL;2041.60;35.23;26.46
15/02/2000;18:10:00;B;86;235.85;-9.02;4.85;NULL;NULL;2030.90;35.50;26.94
15/02/2000;22:05:00;B;87;234.57;-9.42;1.66;4.32;NULL;2037.20;35.29;26.81
16/02/2000;02:05:00;B;88;233.22;-9.83;1.55;2.77;NULL;2021.30;35.64;27.63
16/02/2000;06:00:00;B;89;231.92;-10.22;0.86;1.93;NULL;2020.40;35.81;27.63
16/02/2000;15:10:00;B;90;228.92;-11.15;1.40;3.84;NULL;2033.30;35.27;27.24
16/02/2000;19:05:00;B;91;227.60;-11.55;1.72;1.74;NULL;2026.50;35.61;27.89
16/02/2000;23:05:00;B;92;226.28;-11.95;1.36;0.83;NULL;2015.40;35.75;28.37
17/02/2000;03:10:00;B;93;224.88;-12.38;1.34;1.17;NULL;2010.40;35.66;28.27
17/02/2000;07:00:00;B;94;223.62;-12.77;1.46;1.16;NULL;2007.80;35.71;28.42
17/02/2000;15:10:00;B;95;220.90;-13.58;0.82;0.66;NULL;2001.80;35.76;28.50
17/02/2000;19:05:00;B;96;219.58;-14.02;1.27;0.15;NULL;2000.30;35.79;28.69
17/02/2000;23:05:00;B;97;218.27;-14.47;1.42;0.01;NULL;2000.30;35.87;28.92
18/02/2000;03:20:00;B;98;216.83;-14.92;1.58;0.04;NULL;2000.00;35.85;29.12
18/02/2000;07:00:00;B;99;215.60;-15.28;1.40;0.19;NULL;2007.30;35.91;28.98
18/02/2000;16:10:00;B;100;212.65;-16.70;0.84;0.01;NULL;1999.70;35.89;28.87
18/02/2000;20:05:00;B;101;211.40;-17.13;1.10;0.17;NULL;2002.30;35.71;28.87
20/02/2000;16:14:00;B;102;209.15;-18.27;0.86;0.13;NULL;1994.40;35.80;29.00
20/02/2000;20:10:00;B;103;208.18;-18.82;1.31;0.01;NULL;1983.60;35.66;28.93
21/02/2000;00:15:00;B;104;207.03;-19.48;1.16;0.07;NULL;1979.90;35.56;28.57
21/02/2000;04:05:00;B;105;205.90;-20.12;0.95;0.02;NULL;1979.90;35.40;28.77
21/02/2000;08:05:00;B;106;204.70;-20.82;0.62;0.05;NULL;1978.80;35.42;28.61
21/02/2000;16:10:00;B;107;202.25;-22.23;0.84;0.13;NULL;1948.90;34.88;28.35
21/02/2000;20:05:00;B;108;201.05;-22.90;0.59;0.02;NULL;1946.40;34.72;28.54
22/02/2000;00:10:00;B;109;199.82;-23.58;1.29;0.31;NULL;1933.70;34.88;28.62
22/02/2000;04:05:00;B;110;198.65;-24.27;0.61;0.01;NULL;1924.80;34.70;28.78
22/02/2000;08:00:00;B;111;197.42;-24.94;0.55;0.11;NULL;1977.80;35.18;27.58
22/02/2000;17:10:00;B;112;194.40;-26.60;0.24;0.08;NULL;1963.00;34.91;26.81
22/02/2000;21:05:00;B;113;193.10;-27.30;1.44;0.16;NULL;1988.50;35.38;26.64
23/02/2000;01:25:00;B;114;191.70;-28.07;1.49;0.12;NULL;1990.90;35.37;26.23
23/02/2000;05:15:00;B;115;190.42;-28.77;0.69;0.24;NULL;2018.60;35.64;25.84
23/02/2000;09:15:00;B;116;189.05;-29.50;0.64;0.13;NULL;2027.50;35.63;25.26
23/02/2000;17:15:00;B;117;186.40;-30.90;0.60;0.11;NULL;2024.60;35.51;23.64
23/02/2000;21:20:00;B;118;185.05;-31.60;1.43;0.20;NULL;2024.80;35.54;23.14
24/02/2000;01:05:00;B;119;183.80;-32.25;0.75;0.06;NULL;2026.20;35.49;22.46
24/02/2000;05:15:00;B;120;182.38;-32.98;2.69;0.07;NULL;2031.00;35.47;21.81
24/02/2000;09:10:00;B;121;181.08;-33.63;1.16;0.04;NULL;2031.80;35.46;20.88
24/02/2000;17:15:00;B;122;178.30;-35.05;1.21;0.03;NULL;2034.30;35.54;21.30
24/02/2000;21:15:00;B;123;176.89;-35.75;0.76;0.15;NULL;2028.10;35.57;21.49
25/02/2000;01:00:00;B;124;175.53;-36.38;1.75;0.18;NULL;2031.50;35.28;21.05
26/02/2000;05:10:00;B;125;174.70;-35.32;1.55;0.15;NULL;2030.10;35.44;20.80
26/02/2000;09:05:00;B;126;174.03;-34.37;1.51;0.05;NULL;2023.70;35.57;21.72
26/02/2000;18:10:00;B;127;172.48;-32.08;0.89;0.21;NULL;2031.00;35.64;22.15
26/02/2000;22:15:00;B;128;171.78;-31.03;0.76;0.08;NULL;2019.40;35.65;22.06
27/02/2000;02:15:00;B;129;171.10;-30.00;1.62;0.16;NULL;2024.50;35.68;22.74
27/02/2000;06:15:00;B;130;170.40;-28.97;1.15;0.17;NULL;2021.20;35.69;23.82
27/02/2000;10:05:00;B;131;169.78;-27.97;2.00;0.35;NULL;1955.10;34.89;25.21
27/02/2000;19:15:00;B;132;168.30;-25.65;0.81;0.13;NULL;1951.10;34.90;25.69
27/02/2000;23:05:00;B;133;167.68;-24.67;0.51;0.00;NULL;1951.20;34.97;25.84
28/02/2000;03:00:00;B;134;166.99;-23.53;0.85;0.12;NULL;1966.60;35.18;26.45
